Lakeview, OR

2:56 AM PST on December 03, 2016 (GMT -0800)
Lake County

Weather History for KLKV - March, 2014

Change the Weather History Date:

Thursday, March 6, 2014

  Actual Average Record
Temperature  
Mean Temperature 40 °F -  
Max Temperature 44 °F 46 °F 64 °F (2015)
Min Temperature 35 °F 26 °F -1 °F (1944)
Degree Days  
Heating Degree Days 24    
Moisture  
Dew Point 34 °F    
Average Humidity 86    
Maximum Humidity 87    
Minimum Humidity 81    
Precipitation  
Precipitation 0.01 in - - ()
Sea Level Pressure  
Sea Level Pressure 30.00 in    
Wind  
Wind Speed 15 mph (SSW)    
Max Wind Speed 26 mph    
Max Gust Speed 34 mph    
Visibility 10 miles    
Events      
Averages and records for this station are not official NWS values.
T = Trace of Precipitation, MM = Missing Value Source: NWS Daily Summary

Daily Weather History Graph

Daily Weather History Graph

Search for Another Location

Airport or City:

Trip Planner

Search our weather history database for the weather conditions in past years. The results will help you decide how hot, cold, wet, or windy it might be!

Date:

Astronomy

Mar. 06, 2014 Rise Set
Actual Time 6:28 AM PST 5:57 PM PST
Civil Twilight 6:00 AM PST 6:25 PM PST
Nautical Twilight 5:28 AM PST 6:58 PM PST
Astronomical Twilight 4:55 AM PST 7:30 PM PST
Moon 9:33 AM PST (3/6) No Moon Set
Length of Visible Light 12h 25m
Length of Day
11h 29m
Waxing Crescent, 33% of the Moon is Illuminated
Mar 6
Waxing Crescent
Mar 8
First Quarter
Mar 16
Full
Mar 23
Last Quarter
Mar 30
New

Hourly Weather History & Observations

Time (PST) Temp. Windchill Dew Point Humidity Pressure Visibility Wind Dir Wind Speed Gust Speed Precip Events Conditions
12:15 AM - - - N/A% 29.85 in 10.0 mi South 20.7 mph 27.6 mph N/A   Overcast
12:35 AM 44.6 °F 36.9 °F 41.0 °F 87% 29.87 in 7.0 mi South 18.4 mph 25.3 mph 0.01 in   Overcast
12:55 AM - - - N/A% 29.86 in 10.0 mi South 19.6 mph 29.9 mph 0.01 in   Mostly Cloudy
1:15 AM - - - N/A% 29.88 in 10.0 mi SSW 16.1 mph 23.0 mph N/A   Overcast
1:35 AM - - - N/A% 29.88 in 10.0 mi SSW 17.3 mph 26.5 mph N/A   Mostly Cloudy
1:55 AM - - - N/A% 29.89 in 10.0 mi South 10.4 mph - N/A   Partly Cloudy
2:15 AM - - - N/A% 29.90 in 10.0 mi SSE 6.9 mph - N/A   Clear
2:35 AM - - - N/A% 29.91 in 10.0 mi SSE 9.2 mph - N/A   Clear
2:55 AM - - - N/A% 29.92 in 10.0 mi SSE 8.1 mph - N/A   Clear
3:15 AM - - - N/A% 29.93 in 10.0 mi SE 13.8 mph - N/A   Clear
3:35 AM - - - N/A% 29.93 in 10.0 mi SE 16.1 mph - N/A   Clear
3:55 AM - - - N/A% 29.93 in 10.0 mi SSE 11.5 mph - N/A   Clear
4:15 AM - - - N/A% 29.93 in 10.0 mi South 12.7 mph 18.4 mph N/A   Clear
4:35 AM - - - N/A% 29.93 in 10.0 mi SSE 10.4 mph - N/A   Mostly Cloudy
4:55 AM - - - N/A% 29.93 in 10.0 mi SSE 9.2 mph - N/A   Overcast
5:15 AM - - - N/A% 29.92 in 10.0 mi SSE 10.4 mph - N/A   Overcast
5:35 AM - - - N/A% 29.93 in 10.0 mi SSE 11.5 mph - N/A   Overcast
5:55 AM - - - N/A% 29.93 in 10.0 mi SSW 11.5 mph - N/A   Overcast
6:15 AM - - - N/A% 29.93 in 10.0 mi South 13.8 mph 21.9 mph N/A   Overcast
6:35 AM - - - N/A% 29.94 in 10.0 mi SSW 13.8 mph 25.3 mph N/A   Overcast
6:55 AM - - - N/A% 29.94 in 10.0 mi South 12.7 mph 18.4 mph N/A   Overcast
7:15 AM - - - N/A% 29.95 in 10.0 mi South 10.4 mph 17.3 mph N/A   Overcast
7:35 AM - - - N/A% 29.96 in 10.0 mi South 11.5 mph 16.1 mph N/A   Overcast
7:55 AM - - - N/A% 29.97 in 10.0 mi SSE 11.5 mph 18.4 mph N/A   Overcast
8:15 AM - - - N/A% 29.97 in 10.0 mi SSE 13.8 mph - N/A   Overcast
8:35 AM - - - N/A% 29.97 in 10.0 mi SSE 13.8 mph - N/A   Overcast
8:55 AM - - - N/A% 29.97 in 10.0 mi South 11.5 mph - N/A   Overcast
9:15 AM - - - N/A% 29.96 in 10.0 mi SSW 20.7 mph 26.5 mph N/A   Mostly Cloudy
9:35 AM - - - N/A% 29.97 in 10.0 mi SSW 20.7 mph 28.8 mph N/A   Overcast
9:55 AM - - - N/A% 29.96 in 10.0 mi South 19.6 mph 29.9 mph N/A   Overcast
10:15 AM - - - N/A% 29.97 in 10.0 mi South 17.3 mph - N/A   Overcast
10:35 AM - - - N/A% 29.98 in 10.0 mi South 17.3 mph 24.2 mph N/A   Overcast
10:55 AM - - - N/A% 29.98 in 10.0 mi South 21.9 mph 27.6 mph N/A   Overcast
11:15 AM - - - N/A% 29.97 in 10.0 mi South 21.9 mph 26.5 mph N/A   Overcast
11:35 AM - - - N/A% 29.97 in 10.0 mi South 24.2 mph 31.1 mph N/A   Mostly Cloudy
11:55 AM - - - N/A% 29.97 in 10.0 mi SSW 26.5 mph 34.5 mph N/A   Mostly Cloudy
12:15 PM - - - N/A% 29.97 in 10.0 mi SW 24.2 mph 32.2 mph N/A   Overcast
12:35 PM - - - N/A% 29.98 in 10.0 mi WSW 18.4 mph - N/A   Overcast
12:55 PM - - - N/A% 29.98 in 10.0 mi SSW 18.4 mph 26.5 mph N/A   Overcast
1:15 PM - - - N/A% 29.96 in 10.0 mi SSW 19.6 mph 26.5 mph N/A   Overcast
1:35 PM - - - N/A% 29.96 in 10.0 mi South 17.3 mph 23.0 mph N/A   Mostly Cloudy
1:55 PM - - - N/A% 29.96 in 10.0 mi South 17.3 mph 23.0 mph N/A   Overcast
2:15 PM - - - N/A% 29.97 in 10.0 mi SSW 20.7 mph 26.5 mph N/A   Overcast
2:35 PM - - - N/A% 29.98 in 10.0 mi SSW 19.6 mph 23.0 mph N/A   Mostly Cloudy
2:55 PM - - - N/A% 29.98 in 10.0 mi SSW 15.0 mph 19.6 mph N/A   Overcast
3:15 PM - - - N/A% 29.99 in 10.0 mi WSW 21.9 mph 27.6 mph N/A   Overcast
3:35 PM - - - N/A% 30.01 in 10.0 mi West 17.3 mph 24.2 mph N/A   Overcast
3:55 PM - - - N/A% 30.01 in 10.0 mi WSW 16.1 mph 28.8 mph N/A   Overcast
4:15 PM - - - N/A% 30.02 in 10.0 mi West 12.7 mph 17.3 mph N/A   Overcast
4:35 PM - - - N/A% 30.04 in 10.0 mi West 17.3 mph - N/A   Overcast
4:55 PM - - - N/A% 30.05 in 10.0 mi West 13.8 mph - N/A   Mostly Cloudy
5:15 PM - - - N/A% 30.05 in 10.0 mi WSW 10.4 mph - N/A   Mostly Cloudy
5:35 PM - - - N/A% 30.06 in 10.0 mi WSW 13.8 mph - N/A   Overcast
5:55 PM - - - N/A% 30.07 in 8.0 mi West 10.4 mph - N/A   Overcast
6:15 PM - - - N/A% 30.08 in 10.0 mi WSW 12.7 mph - N/A   Mostly Cloudy
6:35 PM - - - N/A% 30.09 in 10.0 mi WSW 9.2 mph - N/A   Overcast
6:55 PM - - - N/A% 30.09 in 10.0 mi WSW 10.4 mph 24.2 mph N/A   Mostly Cloudy
7:15 PM - - - N/A% 30.11 in 10.0 mi Calm Calm - N/A   Clear
7:35 PM - - - N/A% 30.12 in 10.0 mi East 3.5 mph - N/A   Mostly Cloudy
7:55 PM - - - N/A% 30.12 in 10.0 mi SSE 5.8 mph - N/A   Overcast
8:15 PM - - - N/A% 30.13 in 10.0 mi SSW 8.1 mph - N/A   Overcast
8:35 PM - - - N/A% 30.15 in 10.0 mi SW 8.1 mph - N/A   Overcast
8:55 PM - - - N/A% 30.15 in 10.0 mi SSW 8.1 mph - N/A   Overcast
9:15 PM 37.4 °F 32.1 °F 33.8 °F 87% 30.17 in 10.0 mi SSW 6.9 mph - N/A   Overcast
9:35 PM - - - N/A% 30.17 in 10.0 mi SW 8.1 mph - N/A   Overcast
9:55 PM 37.4 °F 30.3 °F 33.8 °F 87% 30.18 in 10.0 mi SW 10.4 mph - N/A   Overcast
10:15 PM 37.4 °F 32.1 °F 33.8 °F 87% 30.18 in 10.0 mi SW 6.9 mph - N/A   Overcast
10:35 PM 37.4 °F 30.8 °F 32.0 °F 81% 30.19 in 10.0 mi WSW 9.2 mph - N/A   Overcast
10:55 PM - - - N/A% 30.19 in 10.0 mi ESE 4.6 mph - N/A   Overcast
11:15 PM - - - N/A% 30.18 in 10.0 mi SSE 5.8 mph - N/A   Overcast
11:35 PM - - - N/A% 30.18 in 10.0 mi South 6.9 mph - N/A   Overcast
11:55 PM 35.6 °F 32.8 °F 32.0 °F 87% 30.19 in 10.0 mi South 3.5 mph - N/A   Overcast